www.pogodaiklimat.ru

Погода и климат >> Архив погоды >> Япония >> Асахикава


ПОГОДА в Асахикаве

  • Прогноз погоды в Асахикаве
  • Монитор погоды в Асахикаве

АРХИВ ПОГОДЫ в Асахикаве

Время (UTC), дата Ветер
(напр.,м/с)
 
Видим.   Явления Облачность Т
(С)
Тd
(С)
f
(%)
Тe
(С)
Тes
(С)
Комфортность P
(гПа)
Po
(гПа)
Тmin
(С)
Tmax
(С)
R
(мм)
R24
(мм)
S
(см)
01 11.09 В 1 н/о н/о +16.4 +13.1 81 +17 +17 1016.3 999.7
02 11.09 Ю 1 н/о н/о +17.4 +13.5 78 +19 +19 1015.1 998.6
03 11.09 З 1 15 км слаб. ливневой дождь 10/5
[Cu med, cong Ac As]
+18.7 +14.4 76 +21 +23 комфорт 1014.2 997.8
04 11.09 С 3 н/о н/о +17.9 +15.0 83 +18 +18 1014.0 997.6
05 11.09 С 3 н/о н/о +17.0 +15.4 90 +17 +17 1013.3 996.8
06 11.09 С 3 8000 м слаб. ливневой дождь 9/9
[Cu med, cong]
+16.3 +15.3 94 +16 +16 1012.8 996.3 2
07 11.09 С 4 н/о н/о +15.5 +15.0 97 +14 +14 1012.4 995.8
08 11.09 СЗ 3 н/о н/о +15.5 +15.0 97 +15 +15 1012.4 995.8
09 11.09 С 3 8000 м ливневой дождь 9/9
[Cu med, cong]
+15.1 +14.5 96 +14 +14 1012.3 995.7
10 11.09 С 3 н/о н/о +14.9 +14.4 97 +14 +14 1012.7 996.1
11 11.09 СЗ 2 н/о н/о +14.6 +14.1 97 +14 +14 1012.6 996.0
12 11.09 СЗ 2 15 км слаб. ливневой дождь 9/9
[Cu med, cong]
+14.7 +13.6 93 +14 +14 1012.5 995.9 +18.8 17
13 11.09 С 3 н/о н/о +14.5 +13.6 94 +14 +14 1012.2 995.6
14 11.09 С 3 н/о н/о +14.2 +13.4 95 +13 +13 1012.0 995.4
15 11.09 С 3 н/о н/о +13.7 +13.1 96 +12 +12 1012.0 995.3
16 11.09 С 2 н/о н/о +13.5 +12.7 95 +13 +13 1011.7 995.0
17 11.09 СЗ 3 н/о н/о +13.7 +12.9 95 +13 +13 1011.9 995.2
18 11.09 З 2 15 км {ливн. осадки} 9/9
[Cu med, cong]
+12.7 +12.6 99 +12 +12 1011.8 995.1 0.0
19 11.09 З 2 н/о н/о +12.2 +12.1 99 +11 +11 1012.2 995.4
20 11.09 СЗ 2 н/о н/о +12.4 +11.9 97 +12 +12 1012.5 995.7
21 11.09 З 2 10 км 3/1
[Cu med, cong Ac trans Ci sp]
+12.3 +12.0 98 +11 +11 1013.3 996.5
23 11.09 С 2 н/о н/о +14.5 +12.2 86 +14 +14 1013.6 997.0
00 12.09 С 2 20 км 8/8
[Cu med, cong Ac trans]
+16.4 +12.6 78 +17 +18 1013.6 997.1 +11.9 0.0
01 12.09 С 3 н/о н/о +17.9 +12.4 70 +18 +18 1013.6 997.2
02 12.09 СЗ 4 н/о н/о +19.2 +11.3 60 +20 +20 1012.9 996.6
03 12.09 С 3 40 км 5/5
[Cu med, cong]
+20.2 +9.2 49 +22 +28 комфорт 1012.6 996.3
04 12.09 З 3 н/о н/о +19.6 +11.1 58 +21 +21 комфорт 1012.6 996.3
05 12.09 СЗ 5 н/о н/о +17.9 +12.4 70 +17 +17 1013.3 996.9
06 12.09 С 4 20 км слаб. ливневой дождь 9/9
[Cu med, cong]
+17.4 +12.7 74 +17 +17 1013.8 997.3 0.5
07 12.09 С 2 н/о н/о +18.3 +13.0 71 +19 +19 1013.8 997.4
08 12.09 СЗ 2 н/о н/о +17.9 +13.6 76 +18 +18 1014.4 998.0
09 12.09 З 3 30 км {ливн. осадки} 9/9
[Cu med, cong]
+16.7 +13.4 81 +17 +17 1014.9 998.4
10 12.09 С 4 н/о н/о +16.3 +11.7 74 +16 +16 1016.0 999.4
11 12.09 С 4 н/о н/о +15.5 +11.3 76 +15 +15 1016.7 1000.1
12 12.09 СЗ 2 20 км {ливн. осадки} 1/1
[Cu hum]
+14.2 +11.5 84 +14 +14 1017.2 1000.5 +21.1 0.5
13 12.09 СЗ 2 н/о н/о +12.6 +11.7 94 +12 +12 1017.5 1000.7
14 12.09 СЗ 1 н/о н/о +11.6 +10.8 95 +11 +11 1017.8 1000.9
15 12.09 ЮЗ 2 н/о н/о +11.1 +10.5 96 +10 +10 1018.1 1001.2
16 12.09 ЮЗ 2 н/о н/о +10.2 +9.6 96 +9 +9 1018.3 1001.3
17 12.09 С 1 н/о н/о +9.8 +9.5 98 +10 +10 1018.4 1001.4
18 12.09 В 1 8000 м дымка 8/8
[St]
+9.9 +9.5 97 +10 +10 1018.7 1001.7
19 12.09 СЗ 1 н/о н/о +9.8 +9.5 98 +10 +10 1019.2 1002.2
20 12.09 З 2 н/о н/о +9.6 +9.5 99 +8 +8 1019.8 1002.7
21 12.09 ЮЗ 1 1500 м дымка 10/10
[St]
+10.3 +10.3 100 +10 +10 1020.2 1003.2
22 12.09 З 2 н/о н/о +10.2 +10.2 100 +9 +9 1020.3 1003.3
23 12.09 З 1 н/о н/о +11.0 +11.0 100 +11 +11 1020.5 1003.5
00 13.09 ЮЗ 1 5000 м дымка {туман} 10/10
[St]
+11.9 +11.3 96 +12 +12 1020.7 1003.8 +9.2
01 13.09 З 2 н/о н/о +14.1 +11.6 85 +14 +14 1020.5 1003.7
02 13.09 З 2 н/о н/о +17.5 +10.9 65 +18 +18 1019.8 1003.2
03 13.09 С 4 30 км 1/1
[Cu med, cong]
+19.2 +7.3 46 +20 +28 1019.1 1002.7
04 13.09 СЗ 3 н/о н/о +20.7 +7.4 42 +22 +22 комфорт 1018.5 1002.2
05 13.09 СЗ 4 н/о н/о +21.3 +3.5 31 +21 +21 комфорт 1018.2 1001.9
06 13.09 С 4 50 км 1/1
[Cu med, cong Ci fib]
+21.3 +2.6 29 +21 +24 комфорт 1017.5 1001.2
07 13.09 С 4 н/о н/о +21.2 +4.7 34 +22 +22 комфорт 1017.1 1000.8
08 13.09 СЗ 2 н/о н/о +20.2 +6.6 41 +22 +22 комфорт 1017.2 1000.9
09 13.09 ЮЗ 2 40 км 1/1
[Cu med, cong Ci sp]
+17.0 +10.4 65 +17 +17 1018.0 1001.4
10 13.09 Ю 2 н/о н/о +14.5 +8.9 69 +15 +15 1019.2 1002.5
11 13.09 Ю 1 н/о н/о +13.2 +9.5 78 +13 +13 1019.5 1002.7
12 13.09 ЮЗ 2 20 км 1/1
[Cu med, cong Ci fib]
+12.1 +8.8 80 +11 +11 1019.6 1002.7 +21.8
13 13.09 СЗ 2 н/о н/о +11.9 +9.5 85 +11 +11 1019.8 1002.9
14 13.09 С 1 н/о н/о +11.4 +10.2 92 +11 +11 1019.3 1002.4
15 13.09 З 2 н/о н/о +10.9 +10.1 95 +9 +9 1019.1 1002.1
16 13.09 З 1 н/о н/о +10.6 +9.7 94 +10 +10 1018.5 1001.5
17 13.09 Ю 1 н/о н/о +10.3 +9.5 95 +10 +10 1017.8 1000.8
18 13.09 ЮВ 1 20 км 8/1
[Cu med, cong Ci sp]
+10.4 +9.6 95 +10 +10 1017.0 1000.0
19 13.09 СЗ 2 н/о н/о +10.2 +9.6 96 +9 +9 1017.3 1000.3
21 13.09 СЗ 1 40 км 9/1
[Cu hum Ac As Ci sp]
+10.5 +9.9 96 +10 +10 1016.3 999.4
23 13.09 З 2 н/о н/о +13.8 +11.7 87 +14 +14 1016.0 999.3
00 14.09 ЮВ 2 40 км 9/1
[Cu hum Ac As]
+17.1 +12.4 74 +17 +20 1014.7 998.2 +9.9
01 14.09 Ю 4 н/о н/о +20.6 +13.8 65 +23 +23 комфорт 1014.1 997.8
02 14.09 ЮЗ 7 н/о н/о +22.2 +13.6 58 +25 +25 комфорт 1013.4 997.2
03 14.09 ЮЗ 6 40 км 10/6
[Cu med, cong Ac As]
+22.1 +14.2 61 +25 +26 комфорт 1013.1 996.9
04 14.09 ЮЗ 7 н/о н/о +23.0 +14.3 58 +27 +27 душно 1012.0 995.9
05 14.09 ЮЗ 6 н/о н/о +23.0 +14.0 57 +26 +26 жарко 1011.2 995.1
06 14.09 ЮЗ 3 50 км 10/8
[Cu med, cong Ac As]
+23.0 +14.6 59 +27 +27 душно 1010.7 994.6
07 14.09 ЮЗ 5 н/о н/о +22.1 +14.2 61 +25 +25 комфорт 1011.0 994.9
08 14.09 Ю 4 н/о н/о +21.7 +14.4 63 +25 +25 комфорт 1011.1 994.9
09 14.09 Ю 4 30 км 9/3
[Cu med, cong Ac As]
+20.6 +15.4 72 +24 +24 комфорт 1011.1 994.9
10 14.09 Ю 3 н/о н/о +19.8 +15.5 76 +22 +22 комфорт 1011.3 995.0
11 14.09 Ю 5 н/о н/о +19.9 +15.1 74 +22 +22 комфорт 1011.1 994.8
12 14.09 Ю 4 20 км слаб. ливневой дождь 9/9
[Cu med, cong]
+19.5 +15.2 76 +21 +21 комфорт 1011.2 994.9 +23.9 0.0
13 14.09 Ю 2 н/о н/о +19.2 +15.3 78 +21 +21 комфорт 1011.5 995.2
14 14.09 СЗ 1 н/о н/о +18.7 +16.0 84 +21 +21 комфорт 1011.3 995.0
15 14.09 З 1 н/о н/о +18.2 +16.0 87 +20 +20 1011.6 995.2
16 14.09 В 1 н/о н/о +18.2 +16.4 89 +20 +20 1011.6 995.2
17 14.09 ЮВ 2 н/о н/о +17.3 +16.8 97 +18 +18 1010.9 994.5
18 14.09 Ю 1 10 км слаб. ливневой дождь 9/9
[Cu med, cong]
+17.3 +16.8 97 +18 +18 1011.0 994.6 0.0
19 14.09 С 2 н/о н/о +17.2 +16.9 98 +17 +17 1011.4 995.0
20 14.09 СВ 1 н/о н/о +17.0 +16.9 99 +18 +18 1011.9 995.4
21 14.09 В 1 5000 м слаб. ливневой дождь 9/9
[Frnb]
+16.9 +16.9 100 +18 +18 1012.2 995.7
22 14.09 ЮВ 1 н/о н/о +17.0 +16.9 99 +18 +18 1012.3 995.8
23 14.09 ЮЗ 2 н/о н/о +17.6 +17.3 98 +18 +18 1012.4 996.0
00 15.09 З 1 15 км в посл. час ливневой дождь 9/3
[Cu med, cong Ac As]
+18.9 +16.7 87 +21 +24 комфорт 1012.4 996.0 +16.8 3
01 15.09 ЮЗ 2 н/о н/о +20.3 +16.8 80 +24 +24 комфорт 1012.3 996.0
02 15.09 Ю 2 н/о н/о +21.8 +16.5 72 +26 +26 душно 1011.9 995.7
03 15.09 СВ 2 30 км 9/4
[Cu med, cong Ac trans]
+22.2 +16.3 69 +26 +30 душно 1011.6 995.5
04 15.09 С 2 н/о н/о +23.0 +16.6 67 +28 +28 душно 1011.0 994.9
05 15.09 С 2 н/о н/о +23.4 +16.0 63 +28 +28 душно 1010.7 994.7
06 15.09 С 3 40 км 9/3
[Cu med, cong Ac trans]
+22.8 +17.1 70 +28 +29 душно 1010.8 994.7
07 15.09 С 3 н/о н/о +22.7 +16.7 69 +27 +27 душно 1011.0 994.9
08 15.09 СЗ 2 н/о н/о +22.7 +16.3 67 +27 +27 душно 1011.2 995.1
09 15.09 С 3 40 км 5/1
[Cu med, cong Ac trans Ci fib]
+22.0 +17.2 74 +26 +26 душно 1011.6 995.5
10 15.09 З 2 н/о н/о +19.7 +17.7 88 +23 +23 комфорт 1012.4 996.1
11 15.09 СЗ 2 н/о н/о +18.3 +17.5 95 +20 +20 1012.5 996.1
12 15.09 З 2 20 км 6/1
[Cu med, cong Ac trans Ci fib]
+17.4 +16.9 97 +18 +18 1012.9 996.4 +24.0
13 15.09 В 2 н/о н/о +17.5 +16.5 94 +18 +18 1012.9 996.5
14 15.09 СВ 2 н/о н/о +17.0 +15.9 93 +17 +17 1013.1 996.6
15 15.09 С 1 н/о н/о +16.1 +16.0 99 +17 +17 1013.2 996.7
16 15.09 СВ 2 н/о н/о +16.5 +15.4 93 +17 +17 1012.7 996.2
17 15.09 СВ 2 н/о н/о +16.1 +15.1 94 +16 +16 1012.1 995.6
18 15.09 СВ 2 10 км 9/9
[St]
+15.8 +15.2 96 +16 +16 1012.3 995.8
19 15.09 СВ 1 н/о н/о +15.1 +15.1 100 +16 +16 1011.9 995.3
21 15.09 В 2 3000 м дымка {туман} 10/10
[St]
+15.2 +14.9 98 +15 +15 1011.7 995.1
22 15.09 СВ 2 н/о н/о +15.6 +14.3 92 +16 +16 1011.5 995.0
23 15.09 СВ 1 н/о н/о +15.8 +15.2 96 +16 +16 1011.1 994.6
00 16.09 З 1 10 км {ливн. осадки, туман} 9/9
[Cu med, cong Ac As]
+16.9 +16.1 95 +18 +19 1010.7 994.3 +14.9 0.5
01 16.09 ЮВ 1 н/о н/о +17.9 +16.3 90 +20 +20 1009.9 993.5
02 16.09 С 2 н/о н/о +19.7 +16.7 83 +23 +23 комфорт 1009.3 993.0
03 16.09 СВ 2 20 км 9/3
[Cu med, cong Ac As]
+21.6 +17.4 77 +26 +29 душно 1007.9 991.8
04 16.09 В 2 н/о н/о +22.0 +17.4 75 +26 +26 душно 1007.1 991.0
05 16.09 СВ 1 н/о н/о +21.5 +17.5 78 +26 +26 душно 1006.6 990.5
06 16.09 ЮЗ 1 25 км в посл. час ливневой дождь 9/9
[Cu med, cong]
+21.1 +18.5 85 +25 +26 комфорт 1006.1 990.0 0.0
07 16.09 З 3 н/о н/о +20.5 +19.2 92 +25 +25 комфорт 1005.7 989.6
08 16.09 С 3 н/о н/о +19.6 +18.1 91 +22 +22 комфорт 1005.5 989.3
09 16.09 СЗ 1 15 км в посл. час ливневой дождь 10/10
[Cu med, cong]
+19.3 +18.0 92 +23 +23 комфорт 1005.5 989.3
10 16.09 СЗ 2 н/о н/о +19.1 +18.6 97 +22 +22 комфорт 1005.6 989.4
11 16.09 С 4 н/о н/о +18.7 +18.1 96 +20 +20 1005.5 989.2
12 16.09 СЗ 3 5000 м ливневой дождь 10/10
[Cu med, cong]
+17.9 +17.6 98 +18 +18 1005.2 988.9 +22.1 4
13 16.09 З 3 н/о н/о +17.8 +17.8 100 +18 +18 1005.2 988.9
14 16.09 З 3 н/о н/о +17.8 +17.8 100 +18 +18 1005.2 988.9
15 16.09 СЗ 2 н/о н/о +18.1 +17.8 98 +19 +19 1005.2 988.9
16 16.09 СЗ 2 н/о н/о +18.0 +17.8 99 +19 +19 1005.5 989.2
17 16.09 С 3 н/о н/о +18.1 +17.8 98 +19 +19 1005.8 989.5
18 16.09 С 4 10 км в посл. час ливневой дождь 9/9
[Cu med, cong]
+17.9 +17.3 96 +18 +18 1006.1 989.8 4
19 16.09 С 5 н/о н/о +17.8 +16.5 92 +17 +17 1006.8 990.5
20 16.09 С 5 н/о н/о +17.3 +15.8 91 +17 +17 1007.8 991.4
21 16.09 С 3 15 км {ливн. осадки} 6/6
[Cu med, cong]
+16.9 +14.9 88 +17 +17 1008.9 992.5
22 16.09 С 4 н/о н/о +17.2 +13.7 80 +17 +17 1009.5 993.1
23 16.09 С 5 н/о н/о +18.1 +13.2 73 +18 +18 1010.0 993.6
00 17.09 С 4 30 км {ливн. осадки} 1/1
[Cu med, cong]
+19.2 +12.2 64 +20 +25 1010.4 994.1 +16.8 4
01 17.09 С 3 н/о н/о +20.0 +13.0 64 +22 +22 комфорт 1010.3 994.1
02 17.09 С 4 н/о н/о +21.2 +12.1 56 +23 +23 комфорт 1010.1 993.9
03 17.09 СЗ 5 40 км 3/3
[Cu med, cong]
+22.6 +10.1 45 +24 +28 комфорт 1009.9 993.8
04 17.09 З 6 н/о н/о +22.5 +11.3 49 +25 +25 комфорт 1009.8 993.7
05 17.09 З 7 н/о н/о +22.5 +8.2 40 +24 +24 комфорт 1010.1 994.0
06 17.09 З 7 40 км 3/3
[Cu med, cong]
+21.7 +8.9 44 +23 +24 комфорт 1011.1 994.9
07 17.09 З 7 н/о н/о +20.6 +9.2 48 +22 +22 комфорт 1011.8 995.6
08 17.09 З 6 н/о н/о +18.8 +9.6 55 +19 +19 1012.8 996.4
09 17.09 З 5 40 км 1/1
[Cu med, cong Ci sp]
+16.8 +10.2 65 +16 +16 1013.5 997.0
10 17.09 З 5 н/о н/о +15.3 +11.1 76 +14 +14 1014.5 997.9
11 17.09 З 4 н/о н/о +14.7 +11.1 79 +14 +14 1014.4 997.8
12 17.09 В 1 20 км 9/1
[Cu med, cong Ci fib]
+13.9 +10.9 82 +14 +14 1015.0 998.3 +23.5
13 17.09 Ю 2 н/о н/о +12.1 +10.5 90 +11 +11 1015.4 998.6
14 17.09 ЮВ 2 н/о н/о +11.5 +9.9 90 +11 +11 1015.2 998.3
15 17.09 ЮЗ 1 н/о н/о +10.6 +10.0 96 +11 +11 1015.4 998.5
16 17.09 СВ 2 н/о н/о +10.2 +9.8 97 +9 +9 1014.9 998.0
17 17.09 ЮЗ 1 н/о н/о +10.1 +9.7 97 +9 +9 1014.9 998.0
18 17.09 В 1 10 км 9/1
[Cu med, cong Ci sp]
+10.4 +9.6 95 +10 +10 1014.6 997.7
19 17.09 ЮЗ 1 н/о н/о +9.6 +9.2 97 +9 +9 1014.4 997.4
20 17.09 Ю 1 н/о н/о +9.7 +9.3 97 +9 +9 1014.7 997.7
21 17.09 ЮВ 1 10 км 9/1
[Cu med, cong Ac trans Ci sp]
+9.8 +8.9 94 +10 +10 1014.5 997.5
23 17.09 СЗ 1 н/о н/о +11.2 +9.5 89 +11 +11 1013.0 996.2
00 18.09 З 1 40 км 9/1
[Cu med, cong Ac trans Ci sp]
+12.3 +9.7 84 +13 +18 1012.8 996.0 +9.5

 

Местоположение метеостанции Асахикава (Япония): широта 43.77 долгота 142.36 высота над уровнем моря 116 м.

В архиве по умолчанию представлена погода в Асахикаве за последнюю неделю. Архивные данные за месяц целиком и за предыдущие месяцы, начиная с января 2011 года, Вы можете получить, выбрав интересующий диапазон дат из раскрывающегося списка и нажав кнопку "Ввод!".


*Определитесь, кто Вы:
робот инопланетянин человек

Внимание! Время в таблицах - всемирное. Для получения местного времени необходимо прибавить поправку, которая равна 9 ч.

Смотрите также архив погоды в соседних городах и на ближайших метеорологических станциях:

Погода в Румои (Япония) (62 км)
Погода в Ивамидзаве (Япония) (77 км)
Погода в Хаборо (Япония) (85 км)
Погода в Омурайсу (Япония) (102 км)
Погода в Момбецу (Япония) (102 км)
Погода в Саппоро (Япония) (114 км)
Погода в Обихиро (Япония) (117 км)
Погода в Отару (Япония) (127 км)
Погода в Китами Сачи (Япония) (130 км)
Погода в Томакомае (Япония) (144 км)

Пояснения к столбцам:

Ветер - указаны скорость ветра в м/с - средняя за 10 мин, порывы в срок и между сроками (в фигурных скобках) и направление, откуда дует ветер: С - северный, СВ - северо-восточный, В - восточный, ЮВ - юго-восточный, Ю - южный, ЮЗ - юго-западный, З - западный, СЗ - северо-западный.
Видимость - горизонтальная дальность видимости в метрах или километрах. При видимости от 1 до 10 км при отсутствии осадков обычно наблюдается дымка, при ухудшении видимости до 1 км и менее - туман. В сухую погоду видимость может ухудшаться дымом, пылью или мглою.
Явления - указаны атмосферные явления, наблюдавшиеся в срок или в последний час перед сроком; фигурными скобками обозначены явления, наблюдавшиеся между сроками (за 1-3 часа до срока); квадратными скобками обозначены град или гололедные отложения с указанием их диаметра в мм.
Облачность - указаны через наклонную черту общая и нижняя облачность в баллах и высота нижней границы облаков в метрах; квадратными скобками обозначены формы облаков: Ci - перистые, Cs - перисто-слоистые, Cc - перисто-кучевые, Ac - высококучевые, As - высокослоистые, Sc - слоисто-кучевые, Ns - слоисто-дождевые, Cu - кучевые, Cb - кучево-дождевые. Подробнее классификацию облаков см. в Атласе облаков (PDF).
T - Температура воздуха - температура, измеренная на высоте 2 м над землей.
Td - Температура точки росы - температура, при понижении до которой содержащийся в воздухе водяной пар достигнет насыщения.
f - Относительная влажность воздуха - влажноcть воздуха, измеренная на высоте 2 м над землей.
Te - Эффективная температура - температура, которую ощущает одетый по сезону человек в тени. Характеристика душности погоды. При расчете учитывается влияние влажности воздуха и скорости ветра на теплоощущения человека.
Tes - Эффективная температура на солнце - температура, которую ощущает человек, с поправкой на солнечный нагрев. Характеристика знойности погоды. Зависит от высоты солнца над горизонтом, облачности и скорости ветра. Ночью, в пасмурную погоду, а также при ветре 12 м/с и более поправка равна нулю.
P - Атмосферное давление - приведенное к уровню моря атмосферное давление.
Po - Атмосферное давление - измеренное на уровне метеостанции атмосферное давление.
Tmin - Минимальная температура - минимум температуры воздуха на высоте 2 м над землей.
Tmax - Максимальная температура - максимум температуры воздуха на высоте 2 м над землей.
R - Количество осадков - Количество выпавших осадков за период времени, мм. При наведении курсора мыши на число - период времени, за который выпало указанное количество осадков.
R24 - Количество осадков - Количество выпавших осадков за 24 часа, мм.
S - Снежный покров - Высота снежного покрова, см. При наведении курсора мыши на число - состояние снежного покрова и степень покрытия местности в баллах.